| time (UTC) | temp F | wind direction | speed MPH | gust MPH | rain 1hr in | rain 24hr in | rain mn in | humidity % | barometer mb |
| 20260507095621 | 36 | 106 | 0.0 | 0.0 | 0.00 | 0.00 | 0.00 | 79 | 1020.7 |
| 20260507095120 | 36 | 106 | 0.0 | 0.0 | 0.00 | 0.00 | 0.00 | 78 | 1020.7 |
| 20260507094622 | 36 | 107 | 0.0 | 1.0 | 0.00 | 0.00 | 0.00 | 78 | 1020.6 |
| 20260507094121 | 36 | 107 | 0.0 | 1.0 | 0.00 | 0.00 | 0.00 | 78 | 1020.6 |
| 20260507093619 | 37 | 106 | 0.0 | 2.0 | 0.00 | 0.00 | 0.00 | 77 | 1020.5 |
| 20260507093120 | 37 | 107 | 0.0 | 2.0 | 0.00 | 0.00 | 0.00 | 78 | 1020.4 |
| 20260507092616 | 37 | 81 | 0.0 | 3.0 | 0.00 | 0.00 | 0.00 | 79 | 1020.4 |
| 20260507092115 | 36 | 71 | 0.0 | 3.0 | 0.00 | 0.00 | 0.00 | 79 | 1020.4 |
| 20260507091612 | 36 | 143 | 0.0 | 0.0 | 0.00 | 0.00 | 0.00 | 77 | 1020.4 |
| 20260507091113 | 37 | 143 | 0.0 | 0.0 | 0.00 | 0.00 | 0.00 | 77 | 1020.5 |
| 20260507090613 | 37 | 143 | 0.0 | 0.0 | 0.00 | 0.00 | 0.00 | 76 | 1020.5 |
| 20260507090343 | 37 | 143 | 0.0 | 0.0 | 0.00 | 0.00 | 0.00 | 75 | 1020.6 |
| 20260507085609 | 38 | 131 | 0.0 | 5.0 | 0.00 | 0.00 | 0.00 | 74 | 1020.6 |
| 20260507085110 | 38 | 131 | 0.0 | 5.0 | 0.00 | 0.00 | 0.00 | 72 | 1020.6 |
| 20260507084609 | 39 | 117 | 1.0 | 6.0 | 0.00 | 0.00 | 0.00 | 71 | 1020.6 |
| 20260507084109 | 40 | 116 | 2.0 | 6.0 | 0.00 | 0.00 | 0.00 | 71 | 1020.7 |
| 20260507083607 | 39 | 73 | 1.0 | 6.0 | 0.00 | 0.00 | 0.00 | 73 | 1020.7 |
| 20260507083107 | 39 | 77 | 0.0 | 4.0 | 0.00 | 0.00 | 0.00 | 71 | 1020.7 |
| 20260507082605 | 40 | 121 | 0.0 | 4.0 | 0.00 | 0.00 | 0.00 | 70 | 1020.7 |
| 20260507082102 | 40 | 120 | 1.0 | 4.0 | 0.00 | 0.00 | 0.00 | 69 | 1020.7 |
| 20260507081600 | 41 | 120 | 2.0 | 4.0 | 0.00 | 0.00 | 0.00 | 70 | 1020.7 |
| 20260507081101 | 40 | 95 | 1.0 | 4.0 | 0.00 | 0.00 | 0.00 | 71 | 1020.9 |
| 20260507080832 | 40 | 88 | 2.0 | 4.0 | 0.00 | 0.00 | 0.00 | 72 | 1020.9 |
| 20260507075557 | 40 | 146 | 1.0 | 3.0 | 0.00 | 0.00 | 0.00 | 69 | 1020.7 |
| 20260507075057 | 41 | 155 | 1.0 | 6.0 | 0.00 | 0.00 | 0.00 | 67 | 1020.7 |
| 20260507074557 | 42 | 207 | 2.0 | 6.0 | 0.00 | 0.00 | 0.00 | 66 | 1020.7 |
| 20260507074058 | 42 | 124 | 3.0 | 6.0 | 0.00 | 0.00 | 0.00 | 66 | 1020.7 |
| 20260507073555 | 42 | 80 | 4.0 | 7.0 | 0.00 | 0.00 | 0.00 | 66 | 1020.7 |
| 20260507073328 | 42 | 82 | 5.0 | 8.0 | 0.00 | 0.00 | 0.00 | 66 | 1020.7 |
| 20260507072548 | 42 | 63 | 4.0 | 8.0 | 0.00 | 0.00 | 0.00 | 66 | 1020.7 |
| 20260507072320 | 43 | 56 | 4.0 | 6.0 | 0.00 | 0.00 | 0.00 | 66 | 1020.7 |
| 20260507071551 | 43 | 84 | 3.0 | 6.0 | 0.00 | 0.00 | 0.00 | 65 | 1020.7 |
| 20260507071049 | 43 | 84 | 3.0 | 5.0 | 0.00 | 0.00 | 0.00 | 64 | 1020.9 |
| 20260507070550 | 43 | 84 | 3.0 | 5.0 | 0.00 | 0.00 | 0.00 | 65 | 1020.9 |
| 20260507070320 | 43 | 74 | 2.0 | 5.0 | 0.00 | 0.00 | 0.00 | 65 | 1020.9 |
| 20260507065817 | 43 | 80 | 2.0 | 4.0 | 0.00 | 0.00 | 0.00 | 65 | 1020.9 |
| 20260507065045 | 43 | 96 | 2.0 | 5.0 | 0.00 | 0.00 | 0.00 | 65 | 1020.7 |
| 20260507064816 | 43 | 82 | 2.0 | 6.0 | 0.00 | 0.00 | 0.00 | 65 | 1020.7 |
| 20260507064045 | 43 | 121 | 2.0 | 6.0 | 0.00 | 0.00 | 0.00 | 65 | 1020.7 |
| 20260507063543 | 43 | 88 | 1.0 | 5.0 | 0.00 | 0.00 | 0.00 | 64 | 1020.7 |
| 20260507063044 | 44 | 119 | 3.0 | 6.0 | 0.00 | 0.00 | 0.00 | 63 | 1020.7 |
| 20260507062539 | 45 | 118 | 3.0 | 7.0 | 0.00 | 0.00 | 0.00 | 61 | 1020.7 |
| 20260507062040 | 45 | 111 | 2.0 | 7.0 | 0.00 | 0.00 | 0.00 | 62 | 1020.7 |
| 20260507061539 | 44 | 84 | 1.0 | 7.0 | 0.00 | 0.00 | 0.00 | 63 | 1020.7 |
| 20260507061040 | 44 | 123 | 1.0 | 5.0 | 0.00 | 0.00 | 0.00 | 62 | 1020.6 |
| 20260507060538 | 45 | 150 | 3.0 | 5.0 | 0.00 | 0.00 | 0.00 | 61 | 1020.7 |
| 20260507060037 | 44 | 86 | 1.0 | 5.0 | 0.00 | 0.00 | 0.00 | 63 | 1020.6 |
| 20260507055531 | 44 | 61 | 0.0 | 3.0 | 0.00 | 0.00 | 0.00 | 63 | 1020.6 |
| 20260507055029 | 44 | 112 | 1.0 | 4.0 | 0.00 | 0.00 | 0.00 | 62 | 1020.5 |
| 20260507054527 | 45 | 112 | 1.0 | 4.0 | 0.00 | 0.00 | 0.00 | 61 | 1020.4 |
| 20260507054026 | 46 | 86 | 1.0 | 5.0 | 0.00 | 0.00 | 0.00 | 60 | 1020.4 |
| 20260507053525 | 46 | 126 | 2.0 | 6.0 | 0.00 | 0.00 | 0.00 | 59 | 1020.4 |
| 20260507053020 | 46 | 51 | 1.0 | 6.0 | 0.00 | 0.00 | 0.00 | 60 | 1020.4 |
| 20260507052752 | 46 | 98 | 1.0 | 4.0 | 0.00 | 0.00 | 0.00 | 60 | 1020.4 |
| 20260507052022 | 46 | 86 | 1.0 | 4.0 | 0.00 | 0.00 | 0.00 | 60 | 1020.4 |
| 20260507051521 | 46 | 74 | 0.0 | 2.0 | 0.00 | 0.00 | 0.00 | 60 | 1020.3 |
| 20260507051020 | 45 | 123 | 1.0 | 3.0 | 0.00 | 0.00 | 0.00 | 61 | 1020.3 |
| 20260507050751 | 45 | 123 | 0.0 | 3.0 | 0.00 | 0.00 | 0.00 | 61 | 1020.3 |
| 20260507050243 | 46 | 131 | 0.0 | 4.0 | 0.00 | 0.00 | 0.00 | 60 | 1020.2 |
| 20260507045512 | 46 | 88 | 0.0 | 4.0 | 0.00 | 0.00 | 0.00 | 60 | 1020.0 |
| 20260507045009 | 46 | 122 | 0.0 | 1.0 | 0.00 | 0.00 | 0.00 | 60 | 1020.2 |
| 20260507044508 | 46 | 122 | 0.0 | 1.0 | 0.00 | 0.00 | 0.00 | 59 | 1020.2 |
| 20260507044008 | 46 | 122 | 0.0 | 1.0 | 0.00 | 0.00 | 0.00 | 59 | 1020.0 |
| 20260507043506 | 46 | 98 | 0.0 | 1.0 | 0.00 | 0.00 | 0.00 | 59 | 1020.0 |
| 20260507043003 | 46 | 98 | 0.0 | 1.0 | 0.00 | 0.00 | 0.00 | 59 | 1019.9 |
| 20260507042503 | 46 | 65 | 0.0 | 1.0 | 0.00 | 0.00 | 0.00 | 59 | 1020.0 |
| 20260507042003 | 47 | 247 | 0.0 | 0.0 | 0.00 | 0.00 | 0.00 | 58 | 1019.9 |
| 20260507041502 | 47 | 247 | 0.0 | 0.0 | 0.00 | 0.00 | 0.00 | 56 | 1019.8 |
| 20260507041002 | 48 | 247 | 0.0 | 0.0 | 0.00 | 0.00 | 0.00 | 55 | 1019.7 |
| 20260507040731 | 49 | 247 | 0.0 | 0.0 | 0.00 | 0.00 | 0.00 | 54 | 1019.7 |
| 20260507040230 | 49 | 246 | 0.0 | 0.0 | 0.00 | 0.00 | 0.00 | 52 | 1019.7 |
| 20260507035459 | 50 | 247 | 0.0 | 0.0 | 0.00 | 0.00 | 0.00 | 50 | 1019.7 |
| 20260507034958 | 51 | 247 | 0.0 | 0.0 | 0.00 | 0.00 | 0.00 | 48 | 1019.4 |
| 20260507034455 | 52 | 246 | 0.0 | 0.0 | 0.00 | 0.00 | 0.00 | 48 | 1019.4 |
| 20260507033955 | 52 | 247 | 0.0 | 0.0 | 0.00 | 0.00 | 0.00 | 47 | 1019.3 |
| 20260507033448 | 53 | 247 | 0.0 | 0.0 | 0.00 | 0.00 | 0.00 | 45 | 1019.3 |
| 20260507032947 | 54 | 247 | 0.0 | 1.0 | 0.00 | 0.00 | 0.00 | 44 | 1019.2 |
| 20260507032445 | 55 | 247 | 0.0 | 1.0 | 0.00 | 0.00 | 0.00 | 43 | 1019.2 |
| 20260507031943 | 55 | 247 | 0.0 | 1.0 | 0.00 | 0.00 | 0.00 | 41 | 1019.1 |
| 20260507031444 | 56 | 247 | 0.0 | 1.0 | 0.00 | 0.00 | 0.00 | 41 | 1019.0 |
| 20260507030942 | 56 | 247 | 0.0 | 5.0 | 0.00 | 0.00 | 0.00 | 40 | 1018.8 |
| 20260507030441 | 57 | 247 | 0.0 | 5.0 | 0.00 | 0.00 | 0.00 | 39 | 1018.7 |
| 20260507025940 | 57 | 247 | 1.0 | 6.0 | 0.00 | 0.00 | 0.00 | 39 | 1018.6 |
| 20260507025440 | 58 | 241 | 1.0 | 6.0 | 0.00 | 0.00 | 0.00 | 38 | 1018.5 |
| 20260507024940 | 58 | 238 | 1.0 | 5.0 | 0.00 | 0.00 | 0.00 | 38 | 1018.4 |
| 20260507024442 | 58 | 250 | 1.0 | 6.0 | 0.00 | 0.00 | 0.00 | 38 | 1018.4 |
| 20260507023941 | 58 | 278 | 1.0 | 6.0 | 0.00 | 0.00 | 0.00 | 38 | 1018.3 |
| 20260507023707 | 58 | 251 | 1.0 | 6.0 | 0.00 | 0.00 | 0.00 | 37 | 1018.3 |
| 20260507022706 | 59 | 259 | 0.0 | 6.0 | 0.00 | 0.00 | 0.00 | 37 | 1018.1 |
| 20260507021935 | 59 | 240 | 0.0 | 6.0 | 0.00 | 0.00 | 0.00 | 36 | 1018.0 |
| 20260507021435 | 60 | 238 | 0.0 | 6.0 | 0.00 | 0.00 | 0.00 | 36 | 1018.0 |
| 20260507020429 | 60 | 265 | 0.0 | 6.0 | 0.00 | 0.00 | 0.00 | 35 | 1017.8 |
| 20260507015926 | 61 | 272 | 1.0 | 6.0 | 0.00 | 0.00 | 0.00 | 34 | 1017.8 |
| 20260507015426 | 61 | 158 | 2.0 | 7.0 | 0.00 | 0.00 | 0.00 | 34 | 1017.8 |
| 20260507014924 | 62 | 230 | 2.0 | 7.0 | 0.00 | 0.00 | 0.00 | 33 | 1017.8 |
| 20260507014424 | 62 | 221 | 1.0 | 5.0 | 0.00 | 0.00 | 0.00 | 33 | 1017.7 |
| 20260507013917 | 62 | 241 | 1.0 | 5.0 | 0.00 | 0.00 | 0.00 | 33 | 1017.5 |
| 20260507013149 | 63 | 250 | 1.0 | 5.0 | 0.00 | 0.00 | 0.00 | 32 | 1017.4 |
| 20260507012418 | 64 | 221 | 1.0 | 5.0 | 0.00 | 0.00 | 0.00 | 32 | 1017.4 |
| 20260507011917 | 65 | 268 | 1.0 | 5.0 | 0.00 | 0.00 | 0.00 | 30 | 1017.5 |
| 20260507010912 | 66 | 242 | 1.0 | 5.0 | 0.00 | 0.00 | 0.00 | 29 | 1017.4 |
| 20260507005913 | 66 | 195 | 2.0 | 6.0 | 0.00 | 0.00 | 0.00 | 29 | 1017.4 |
| 20260507005412 | 67 | 217 | 2.0 | 7.0 | 0.00 | 0.00 | 0.00 | 30 | 1017.4 |
| 20260507004912 | 67 | 236 | 3.0 | 7.0 | 0.00 | 0.00 | 0.00 | 28 | 1017.3 |
| 20260507004410 | 67 | 237 | 3.0 | 12.0 | 0.00 | 0.00 | 0.00 | 28 | 1017.3 |
| 20260507003906 | 67 | 250 | 3.0 | 12.0 | 0.00 | 0.00 | 0.00 | 27 | 1017.3 |
| 20260507003404 | 68 | 235 | 3.0 | 12.0 | 0.00 | 0.00 | 0.00 | 25 | 1017.3 |
| 20260507002905 | 68 | 6 | 3.0 | 12.0 | 0.00 | 0.00 | 0.00 | 25 | 1017.3 |
| 20260507002406 | 69 | 269 | 1.0 | 10.0 | 0.00 | 0.00 | 0.00 | 25 | 1017.2 |
| 20260507001407 | 68 | 212 | 2.0 | 10.0 | 0.00 | 0.00 | 0.00 | 26 | 1017.2 |
| 20260507000902 | 68 | 242 | 3.0 | 10.0 | 0.00 | 0.00 | 0.00 | 25 | 1017.2 |
| 20260507000633 | 69 | 279 | 2.0 | 8.0 | 0.00 | 0.00 | 0.00 | 27 | 1017.2 |
| 20260506235903 | 68 | 278 | 2.0 | 8.0 | 0.00 | 0.00 | 0.00 | 26 | 1017.0 |
| 20260506235402 | 68 | 265 | 3.0 | 9.0 | 0.00 | 0.00 | 0.00 | 26 | 1017.0 |
| 20260506234902 | 68 | 270 | 2.0 | 11.0 | 0.00 | 0.00 | 0.00 | 25 | 1017.0 |
| 20260506234404 | 68 | 274 | 2.0 | 11.0 | 0.00 | 0.00 | 0.00 | 26 | 1017.2 |
| 20260506234135 | 68 | 72 | 3.0 | 11.0 | 0.00 | 0.00 | 0.00 | 26 | 1017.2 |
| 20260506233358 | 68 | 252 | 3.0 | 11.0 | 0.00 | 0.00 | 0.00 | 26 | 1017.2 |
| 20260506232858 | 68 | 262 | 2.0 | 10.0 | 0.00 | 0.00 | 0.00 | 27 | 1017.2 |
| 20260506232357 | 67 | 281 | 3.0 | 10.0 | 0.00 | 0.00 | 0.00 | 27 | 1017.2 |
| 20260506232129 | 67 | 237 | 3.0 | 10.0 | 0.00 | 0.00 | 0.00 | 26 | 1017.3 |
| 20260506231358 | 67 | 303 | 2.0 | 10.0 | 0.00 | 0.00 | 0.00 | 28 | 1017.3 |
| 20260506230859 | 67 | 202 | 4.0 | 11.0 | 0.00 | 0.00 | 0.00 | 27 | 1017.3 |
| 20260506230352 | 67 | 225 | 3.0 | 11.0 | 0.00 | 0.00 | 0.00 | 26 | 1017.4 |
| 20260506225852 | 67 | 352 | 3.0 | 8.0 | 0.00 | 0.00 | 0.00 | 27 | 1017.3 |
| 20260506225352 | 67 | 327 | 3.0 | 9.0 | 0.00 | 0.00 | 0.00 | 27 | 1017.3 |
| 20260506224852 | 67 | 290 | 2.0 | 9.0 | 0.00 | 0.00 | 0.00 | 27 | 1017.3 |
| 20260506224352 | 67 | 339 | 3.0 | 9.0 | 0.00 | 0.00 | 0.00 | 28 | 1017.3 |
| 20260506223851 | 67 | 213 | 3.0 | 13.0 | 0.00 | 0.00 | 0.00 | 28 | 1017.3 |
| 20260506223344 | 67 | 275 | 4.0 | 13.0 | 0.00 | 0.00 | 0.00 | 28 | 1017.4 |
| 20260506222845 | 67 | 327 | 5.0 | 14.0 | 0.00 | 0.00 | 0.00 | 29 | 1017.5 |
| 20260506222347 | 67 | 349 | 5.0 | 14.0 | 0.00 | 0.00 | 0.00 | 28 | 1017.3 |
| 20260506221846 | 67 | 25 | 4.0 | 13.0 | 0.00 | 0.00 | 0.00 | 28 | 1017.5 |
| 20260506221345 | 67 | 25 | 4.0 | 13.0 | 0.00 | 0.00 | 0.00 | 29 | 1017.5 |
| 20260506221115 | 67 | 266 | 5.0 | 11.0 | 0.00 | 0.00 | 0.00 | 29 | 1017.4 |
| 20260506215838 | 66 | 233 | 3.0 | 12.0 | 0.00 | 0.00 | 0.00 | 30 | 1017.7 |
| 20260506215340 | 66 | 321 | 5.0 | 12.0 | 0.00 | 0.00 | 0.00 | 30 | 1017.7 |
| 20260506214839 | 66 | 258 | 4.0 | 12.0 | 0.00 | 0.00 | 0.00 | 29 | 1017.8 |
| 20260506214340 | 65 | 257 | 4.0 | 12.0 | 0.00 | 0.00 | 0.00 | 30 | 1017.7 |
| 20260506213334 | 66 | 270 | 3.0 | 13.0 | 0.00 | 0.00 | 0.00 | 29 | 1017.9 |
| 20260506212834 | 65 | 250 | 3.0 | 16.0 | 0.00 | 0.00 | 0.00 | 30 | 1017.9 |
| 20260506212334 | 65 | 79 | 4.0 | 16.0 | 0.00 | 0.00 | 0.00 | 31 | 1018.0 |
| 20260506211835 | 65 | 243 | 5.0 | 17.0 | 0.00 | 0.00 | 0.00 | 31 | 1018.0 |
| 20260506211605 | 64 | 266 | 4.0 | 17.0 | 0.00 | 0.00 | 0.00 | 31 | 1018.1 |
| 20260506210833 | 64 | 254 | 4.0 | 11.0 | 0.00 | 0.00 | 0.00 | 30 | 1018.1 |
| 20260506210328 | 64 | 245 | 4.0 | 12.0 | 0.00 | 0.00 | 0.00 | 31 | 1018.1 |
| 20260506205824 | 64 | 313 | 4.0 | 12.0 | 0.00 | 0.00 | 0.00 | 30 | 1018.3 |
| 20260506205324 | 64 | 210 | 4.0 | 9.0 | 0.00 | 0.00 | 0.00 | 30 | 1018.3 |
| 20260506205057 | 64 | 237 | 3.0 | 9.0 | 0.00 | 0.00 | 0.00 | 32 | 1018.4 |
| 20260506204325 | 64 | 216 | 3.0 | 9.0 | 0.00 | 0.00 | 0.00 | 34 | 1018.4 |
| 20260506203825 | 64 | 186 | 3.0 | 9.0 | 0.00 | 0.00 | 0.00 | 33 | 1018.4 |
| 20260506203552 | 64 | 303 | 3.0 | 9.0 | 0.00 | 0.00 | 0.00 | 33 | 1018.5 |
| 20260506202822 | 63 | 228 | 3.0 | 8.0 | 0.00 | 0.00 | 0.00 | 33 | 1018.5 |
| 20260506202322 | 63 | 318 | 3.0 | 11.0 | 0.00 | 0.00 | 0.00 | 35 | 1018.5 |
| 20260506201821 | 62 | 259 | 4.0 | 11.0 | 0.00 | 0.00 | 0.00 | 36 | 1018.5 |
| 20260506201320 | 62 | 224 | 5.0 | 12.0 | 0.00 | 0.00 | 0.00 | 36 | 1018.5 |
| 20260506200819 | 62 | 247 | 5.0 | 12.0 | 0.00 | 0.00 | 0.00 | 34 | 1018.6 |
| 20260506200315 | 62 | 228 | 4.0 | 12.0 | 0.00 | 0.00 | 0.00 | 33 | 1018.6 |
| 20260506195316 | 62 | 299 | 3.0 | 9.0 | 0.00 | 0.00 | 0.00 | 34 | 1018.6 |
| 20260506194815 | 62 | 282 | 3.0 | 10.0 | 0.00 | 0.00 | 0.00 | 34 | 1018.6 |
| 20260506194313 | 61 | 279 | 3.0 | 10.0 | 0.00 | 0.00 | 0.00 | 35 | 1018.7 |
| 20260506193815 | 61 | 212 | 3.0 | 10.0 | 0.00 | 0.00 | 0.00 | 35 | 1018.7 |
| 20260506193310 | 61 | 241 | 4.0 | 11.0 | 0.00 | 0.00 | 0.00 | 35 | 1018.8 |
| 20260506192810 | 61 | 254 | 4.0 | 11.0 | 0.00 | 0.00 | 0.00 | 35 | 1018.7 |
| 20260506192309 | 61 | 214 | 3.0 | 12.0 | 0.00 | 0.00 | 0.00 | 36 | 1018.8 |
| 20260506191810 | 61 | 236 | 4.0 | 12.0 | 0.00 | 0.00 | 0.00 | 35 | 1018.7 |
| 20260506191308 | 61 | 212 | 4.0 | 12.0 | 0.00 | 0.00 | 0.00 | 35 | 1018.8 |
| 20260506190304 | 61 | 323 | 2.0 | 9.0 | 0.00 | 0.00 | 0.00 | 36 | 1019.0 |
| 20260506185803 | 60 | 332 | 4.0 | 10.0 | 0.00 | 0.00 | 0.00 | 37 | 1019.0 |
| 20260506185306 | 59 | 244 | 4.0 | 11.0 | 0.00 | 0.00 | 0.00 | 36 | 1019.0 |
| 20260506185034 | 59 | 327 | 4.0 | 11.0 | 0.00 | 0.00 | 0.00 | 35 | 1019.1 |
| 20260506184302 | 59 | 283 | 4.0 | 11.0 | 0.00 | 0.00 | 0.00 | 37 | 1019.1 |
| 20260506183801 | 59 | 278 | 4.0 | 11.0 | 0.00 | 0.00 | 0.00 | 35 | 1019.1 |
| 20260506183258 | 59 | 295 | 3.0 | 11.0 | 0.00 | 0.00 | 0.00 | 35 | 1019.1 |
| 20260506182758 | 59 | 278 | 3.0 | 9.0 | 0.00 | 0.00 | 0.00 | 36 | 1019.2 |
| 20260506182300 | 59 | 223 | 3.0 | 10.0 | 0.00 | 0.00 | 0.00 | 37 | 1019.1 |
| 20260506181758 | 58 | 263 | 4.0 | 10.0 | 0.00 | 0.00 | 0.00 | 38 | 1019.1 |
| 20260506181527 | 58 | 272 | 4.0 | 10.0 | 0.00 | 0.00 | 0.00 | 39 | 1019.1 |
| 20260506181027 | 58 | 250 | 3.0 | 11.0 | 0.00 | 0.01 | 0.00 | 38 | 1019.1 |
| 20260506180522 | 59 | 254 | 2.0 | 11.0 | 0.00 | 0.01 | 0.00 | 39 | 1019.1 |
| 20260506175752 | 58 | 300 | 4.0 | 10.0 | 0.00 | 0.01 | 0.00 | 38 | 1019.2 |
| 20260506175252 | 58 | 296 | 3.0 | 10.0 | 0.00 | 0.02 | 0.00 | 38 | 1019.1 |
| 20260506174752 | 58 | 286 | 2.0 | 8.0 | 0.00 | 0.07 | 0.00 | 41 | 1019.1 |
| 20260506174250 | 58 | 303 | 2.0 | 11.0 | 0.00 | 0.07 | 0.00 | 38 | 1019.1 |
| 20260506173749 | 57 | 286 | 2.0 | 11.0 | 0.00 | 0.07 | 0.00 | 43 | 1019.1 |
| 20260506173242 | 57 | 247 | 3.0 | 11.0 | 0.00 | 0.07 | 0.00 | 41 | 1019.1 |
| 20260506172742 | 56 | 51 | 4.0 | 11.0 | 0.00 | 0.07 | 0.00 | 40 | 1019.2 |
| 20260506172244 | 56 | 53 | 3.0 | 10.0 | 0.00 | 0.07 | 0.00 | 41 | 1019.1 |
| 20260506171744 | 56 | 298 | 4.0 | 10.0 | 0.00 | 0.07 | 0.00 | 42 | 1019.1 |
| 20260506171244 | 55 | 293 | 4.0 | 11.0 | 0.00 | 0.07 | 0.00 | 43 | 1019.2 |
| 20260506170743 | 56 | 247 | 3.0 | 11.0 | 0.00 | 0.07 | 0.00 | 41 | 1019.1 |
| 20260506170240 | 56 | 277 | 3.0 | 9.0 | 0.00 | 0.07 | 0.00 | 41 | 1019.1 |
| 20260506165740 | 56 | 237 | 3.0 | 8.0 | 0.00 | 0.07 | 0.00 | 41 | 1019.1 |
| 20260506164740 | 56 | 280 | 2.0 | 6.0 | 0.00 | 0.07 | 0.00 | 42 | 1019.0 |
| 20260506164242 | 55 | 242 | 2.0 | 6.0 | 0.00 | 0.07 | 0.00 | 42 | 1019.0 |
| 20260506163742 | 55 | 6 | 2.0 | 6.0 | 0.00 | 0.07 | 0.00 | 43 | 1019.0 |
| 20260506163243 | 55 | 265 | 2.0 | 8.0 | 0.00 | 0.07 | 0.00 | 43 | 1018.8 |
| 20260506162508 | 54 | 304 | 3.0 | 10.0 | 0.00 | 0.07 | 0.00 | 42 | 1018.8 |
| 20260506161738 | 54 | 199 | 3.0 | 10.0 | 0.00 | 0.07 | 0.00 | 43 | 1018.8 |
| 20260506161238 | 54 | 332 | 2.0 | 9.0 | 0.00 | 0.07 | 0.00 | 41 | 1018.7 |
| 20260506160736 | 54 | 244 | 3.0 | 9.0 | 0.00 | 0.07 | 0.00 | 42 | 1018.7 |
| 20260506160507 | 54 | 228 | 3.0 | 9.0 | 0.00 | 0.07 | 0.00 | 41 | 1018.7 |
| 20260506160002 | 54 | 247 | 3.0 | 9.0 | 0.00 | 0.07 | 0.00 | 42 | 1018.7 |
| 20260506155229 | 55 | 38 | 1.0 | 6.0 | 0.00 | 0.07 | 0.00 | 46 | 1018.7 |
| 20260506154730 | 54 | 104 | 1.0 | 5.0 | 0.00 | 0.07 | 0.00 | 46 | 1018.7 |
| 20260506154229 | 53 | 22 | 2.0 | 5.0 | 0.00 | 0.07 | 0.00 | 47 | 1018.6 |
| 20260506154000 | 53 | 46 | 2.0 | 5.0 | 0.00 | 0.07 | 0.00 | 46 | 1018.6 |
| 20260506153229 | 53 | 265 | 1.0 | 7.0 | 0.00 | 0.07 | 0.00 | 46 | 1018.6 |
| 20260506152728 | 53 | 38 | 1.0 | 7.0 | 0.00 | 0.07 | 0.00 | 47 | 1018.6 |
| 20260506152227 | 53 | 330 | 1.0 | 7.0 | 0.00 | 0.07 | 0.00 | 48 | 1018.5 |
| 20260506151727 | 52 | 337 | 2.0 | 7.0 | 0.00 | 0.07 | 0.00 | 47 | 1018.5 |
| 20260506151225 | 53 | 274 | 1.0 | 7.0 | 0.00 | 0.07 | 0.00 | 45 | 1018.5 |
| 20260506150724 | 53 | 269 | 1.0 | 3.0 | 0.00 | 0.07 | 0.00 | 53 | 1018.4 |
| 20260506150224 | 52 | 150 | 1.0 | 3.0 | 0.00 | 0.07 | 0.00 | 53 | 1018.4 |
| 20260506145718 | 51 | 84 | 1.0 | 3.0 | 0.00 | 0.07 | 0.00 | 57 | 1018.4 |
| 20260506145216 | 51 | 86 | 0.0 | 2.0 | 0.00 | 0.07 | 0.00 | 59 | 1018.4 |
| 20260506144945 | 50 | 112 | 0.0 | 2.0 | 0.00 | 0.07 | 0.00 | 62 | 1018.4 |
| 20260506144212 | 49 | 96 | 0.0 | 2.0 | 0.00 | 0.07 | 0.00 | 64 | 1018.4 |
| 20260506143712 | 47 | 96 | 0.0 | 1.0 | 0.00 | 0.07 | 0.00 | 68 | 1018.3 |
| 20260506143205 | 46 | 96 | 0.0 | 1.0 | 0.00 | 0.07 | 0.00 | 69 | 1018.4 |
| 20260506142705 | 45 | 96 | 1.0 | 3.0 | 0.00 | 0.08 | 0.00 | 72 | 1018.3 |
| 20260506142206 | 44 | 95 | 1.0 | 3.0 | 0.00 | 0.08 | 0.00 | 74 | 1018.3 |
| 20260506141936 | 43 | 107 | 1.0 | 3.0 | 0.00 | 0.09 | 0.00 | 77 | 1018.3 |
| 20260506141437 | 42 | 128 | 1.0 | 4.0 | 0.00 | 0.09 | 0.00 | 79 | 1018.3 |
| 20260506140705 | 41 | 119 | 2.0 | 4.0 | 0.00 | 0.09 | 0.00 | 79 | 1018.3 |
| 20260506140200 | 41 | 91 | 2.0 | 4.0 | 0.00 | 0.09 | 0.00 | 79 | 1018.3 |
| 20260506135659 | 40 | 97 | 1.0 | 4.0 | 0.00 | 0.09 | 0.00 | 81 | 1018.3 |
| 20260506135159 | 40 | 118 | 0.0 | 2.0 | 0.00 | 0.09 | 0.00 | 84 | 1018.4 |
| 20260506134700 | 39 | 148 | 0.0 | 2.0 | 0.00 | 0.09 | 0.00 | 85 | 1018.3 |
| 20260506134159 | 38 | 148 | 0.0 | 2.0 | 0.00 | 0.09 | 0.00 | 86 | 1018.3 |
| 20260506133700 | 37 | 143 | 0.0 | 2.0 | 0.00 | 0.09 | 0.00 | 87 | 1018.1 |
| 20260506133156 | 37 | 136 | 0.0 | 2.0 | 0.00 | 0.09 | 0.00 | 88 | 1018.0 |
| 20260506132655 | 36 | 136 | 0.0 | 2.0 | 0.00 | 0.09 | 0.00 | 89 | 1018.0 |
| 20260506132424 | 35 | 133 | 0.0 | 3.0 | 0.00 | 0.09 | 0.00 | 90 | 1017.9 |
| 20260506131653 | 35 | 150 | 0.0 | 3.0 | 0.00 | 0.09 | 0.00 | 91 | 1017.9 |
| 20260506131425 | 34 | 84 | 0.0 | 3.0 | 0.00 | 0.09 | 0.00 | 91 | 1017.8 |
| 20260506130654 | 33 | 84 | 0.0 | 3.0 | 0.00 | 0.09 | 0.00 | 92 | 1017.8 |
| 20260506130148 | 31 | 94 | 1.0 | 3.0 | 0.00 | 0.09 | 0.00 | 92 | 1017.7 |
| 20260506125648 | 30 | 153 | 1.0 | 3.0 | 0.00 | 0.09 | 0.00 | 92 | 1017.5 |
| 20260506125419 | 29 | 131 | 1.0 | 3.0 | 0.00 | 0.09 | 0.00 | 91 | 1017.4 |
| 20260506124648 | 29 | 127 | 0.0 | 2.0 | 0.00 | 0.09 | 0.00 | 91 | 1017.4 |
| 20260506124147 | 30 | 144 | 0.0 | 2.0 | 0.00 | 0.09 | 0.00 | 91 | 1017.3 |
| 20260506123647 | 30 | 144 | 0.0 | 2.0 | 0.00 | 0.09 | 0.00 | 91 | 1017.3 |
| 20260506123143 | 30 | 119 | 0.0 | 2.0 | 0.00 | 0.09 | 0.00 | 91 | 1017.3 |
| 20260506122644 | 29 | 119 | 0.0 | 2.0 | 0.00 | 0.09 | 0.00 | 90 | 1017.2 |
| 20260506122144 | 30 | 143 | 0.0 | 3.0 | 0.00 | 0.09 | 0.00 | 90 | 1017.0 |
| 20260506121644 | 30 | 143 | 0.0 | 3.0 | 0.00 | 0.09 | 0.00 | 90 | 1017.0 |
| 20260506121142 | 30 | 143 | 1.0 | 4.0 | 0.00 | 0.09 | 0.00 | 90 | 1017.0 |
| 20260506120643 | 31 | 120 | 2.0 | 5.0 | 0.00 | 0.09 | 0.00 | 90 | 1017.0 |
| 20260506120407 | 31 | 131 | 1.0 | 5.0 | 0.00 | 0.09 | 0.00 | 90 | 1017.0 |
| 20260506115636 | 31 | 124 | 1.0 | 3.0 | 0.00 | 0.09 | 0.00 | 90 | 1017.0 |
| 20260506115135 | 31 | 116 | 0.0 | 3.0 | 0.00 | 0.09 | 0.00 | 89 | 1017.0 |
| 20260506114636 | 31 | 107 | 1.0 | 6.0 | 0.00 | 0.09 | 0.00 | 89 | 1017.0 |
| 20260506114136 | 32 | 106 | 2.0 | 6.0 | 0.00 | 0.09 | 0.00 | 89 | 1017.0 |
| 20260506113907 | 32 | 107 | 2.0 | 7.0 | 0.00 | 0.09 | 0.00 | 89 | 1017.0 |
| 20260506113132 | 32 | 88 | 2.0 | 7.0 | 0.00 | 0.09 | 0.00 | 90 | 1017.0 |
| 20260506112631 | 32 | 100 | 2.0 | 4.0 | 0.00 | 0.09 | 0.00 | 90 | 1017.0 |
| 20260506112130 | 32 | 118 | 1.0 | 5.0 | 0.00 | 0.09 | 0.00 | 89 | 1017.0 |
| 20260506111630 | 32 | 91 | 1.0 | 5.0 | 0.00 | 0.09 | 0.00 | 89 | 1017.0 |
| 20260506111130 | 32 | 83 | 1.0 | 5.0 | 0.00 | 0.09 | 0.00 | 89 | 1017.0 |
| 20260506110629 | 32 | 117 | 1.0 | 5.0 | 0.00 | 0.09 | 0.00 | 90 | 1016.8 |
| 20260506110126 | 32 | 81 | 1.0 | 5.0 | 0.00 | 0.09 | 0.00 | 89 | 1017.0 |
| 20260506105626 | 32 | 121 | 1.0 | 4.0 | 0.00 | 0.09 | 0.00 | 88 | 1017.0 |
| 20260506105356 | 32 | 144 | 2.0 | 5.0 | 0.00 | 0.09 | 0.00 | 88 | 1017.0 |
| 20260506104623 | 33 | 133 | 2.0 | 5.0 | 0.00 | 0.09 | 0.00 | 89 | 1016.8 |
| 20260506104355 | 33 | 96 | 2.0 | 5.0 | 0.00 | 0.09 | 0.00 | 89 | 1016.8 |
| 20260506103623 | 33 | 87 | 2.0 | 5.0 | 0.00 | 0.09 | 0.00 | 89 | 1016.8 |
| 20260506103119 | 33 | 87 | 2.0 | 5.0 | 0.00 | 0.09 | 0.00 | 89 | 1016.7 |
| 20260506102620 | 33 | 90 | 2.0 | 5.0 | 0.00 | 0.09 | 0.00 | 89 | 1016.7 |
| 20260506102118 | 32 | 97 | 2.0 | 4.0 | 0.00 | 0.09 | 0.00 | 89 | 1016.7 |
| 20260506101850 | 33 | 94 | 3.0 | 4.0 | 0.00 | 0.09 | 0.00 | 88 | 1016.7 |
| 20260506101117 | 33 | 98 | 3.0 | 4.0 | 0.00 | 0.09 | 0.00 | 88 | 1016.7 |
| 20260506100849 | 33 | 100 | 2.0 | 4.0 | 0.00 | 0.09 | 0.00 | 88 | 1016.7 |
| 20260506100343 | 33 | 112 | 2.0 | 4.0 | 0.00 | 0.09 | 0.00 | 88 | 1016.7 |